Aérodrome :
LOGIN :

S'inscrire | Disclaimer

   EN    FR    IT 

 










Légende :    VFR   VFR Marginal   IFR   IFR Intensif   IFR Très Intensif
Visi : 
Plafond : 
>= 8 km
>= 3000ft
5 à 8 km
1000 à 3000 ft
1500m à 5 km
500 à 1000 ft
800 à 1500m
200 à 500 ft
< 800m
< 200 ft
Symboles :   Orages  Brouillard  Fortes neiges  Fortes précipitations  Vent > 20 kt
SIGMETs :   Divers  Orages  Givrage  Turbulence  Onde Orograph.  Cendres Volcan.







- Altitude de l'aérodrome : 24 ft
- Code IATA : SGD


EKSB - Sonderborg

DERNIER METAR :
  • 241420Z 30007KT 250V320 9999 SCT025 BKN230 19/12 Q1017

METARs EXPIRÉS :
  • 241350Z 31009KT 9999 SCT025 BKN230 19/12 Q1017
  • 241320Z 31009KT 270V340 9999 SCT025 BKN230 19/12 Q1017
  • 241250Z 32009KT 9999 SCT025 BKN230 18/12 Q1017
  • 241220Z AUTO 32010KT 9999NDV FEW024/// 18/12 Q1017
  • 241150Z AUTO 30008KT 270V340 9999NDV BKN023/// 18/12 Q1017

TAF TAF EKSB
Valide du 24 à 13h jusqu'au 24 à 19h UTC


241236Z 2413/2419 30010KT 9999 BKN020
Pas de NOTAMs connus pour ce terrain.



MET'MAP, la Météo Aéronautique d'un coup d'oeil ! - Copyright ORBIFLY Décembre 2007 - Disclaimer

ORBIFLY MET'MAP TEAM :

Programmation & Développement : Alexandra Zaïnal
Conception & Développement : Baudouin d'Aumeries
Co-Programmation & Développement : Marc-Olivier Méhu
Soutien technique & logistique : Manuel Goepfert

Contact : metmap@orbifly.com




SOURCES & CREDITS :

   NOAA